Skip Page Navigation
NASA JPL Caltech
NASA Logo - Jet Propulsion Laboratory + View the NASA Portal
+ Center for Near-Earth Object Studies
JPL Home Earth Solar System Stars & Galaxies Technology
JPL Solar System Dynamics
BODIES ORBITS EPHEMERIDES TOOLS PHYSICAL DATA DISCOVERY FAQ SITE MAP
JPL Small-Body Database Browser
Search: [ help ]  
134346 Pinatubo (1991 PT2)
Classification: Main-belt Asteroid          SPK-ID: 2134346
Ephemeris | Orbit Diagram | Orbital Elements | Mission Design | Physical Parameters | Discovery Circumstances ]

[ show orbit diagram ]
Orbital Elements at Epoch 2459000.5 (2020-May-31.0) TDB
Reference: JPL 24 (heliocentric ecliptic J2000)
 Element Value Uncertainty (1-sigma)   Units 
e .2523040124568839 3.2597e-08  
a 2.382529832132877 7.8899e-09 au
q 1.781407995687526 7.7751e-08 au
i 3.742426821159407 3.3273e-06 deg
node 110.6473127148988 7.0187e-05 deg
peri 224.8894020202913 7.0597e-05 deg
M 286.882905233557 8.6365e-06 deg
tp 2459273.317593523438
(2021-Feb-27.81759352)
3.2804e-05 TDB
period 1343.247211642673
3.68
6.6724e-06
1.827e-08
d
yr
n .268007256504744 1.3313e-09 deg/d
Q 2.983651668578228 9.8806e-09 au
  Orbit Determination Parameters
   # obs. used (total)      780  
   data-arc span      10540 days (28.86 yr)  
   first obs. used      1991-08-02  
   last obs. used      2020-06-10  
   planetary ephem.      DE431  
   SB-pert. ephem.      SB431-N16  
   condition code      0  
   norm. resid. RMS      .53113  
   source      ORB  
   producer      Otto Matic  
   solution date      2020-Jun-24 02:28:02  

Additional Information
 Earth MOID = .773965 au 
 Jupiter MOID = 2.40347 au 
 T_jup = 3.491 
[ show covariance matrix ]

Ephemeris | Orbit Diagram | Orbital Elements | Mission Design | Physical Parameters | Discovery Circumstances ]

Physical Parameter Table
Parameter Symbol Value Units Sigma Reference Notes
absolute magnitude H 15.9   n/a MPO325403  

134346 Pinatubo           Discovered 1991 Aug. 2 by E. W. Elst at the European Southern Observatory.
Pinatubo is an active volcano on Luzon island in the Philippines. In June 1991 the volcano became eruptive, hurling ash up to heights of 20 km. Large amounts of minerals and metals were brought to the surface.
NOTE: some special characters may not display properly (any characters within {} are an attempt to place the proper accent above a character)
Reference: 20100726/MPCPages.arcLast Updated: 2010-07-28

Alternate Designations
 1991 PT2 = 2002 LS31 
Ephemeris | Orbit Diagram | Orbital Elements | Mission Design | Physical Parameters | Discovery Circumstances ]
ABOUT SSD CREDITS/AWARDS PRIVACY/COPYRIGHT GLOSSARY LINKS
FirstGov 2020-Oct-30 17:40 UT
(server date/time)  
NASA Home Page
Site Manager:   Ryan S. Park
Webmaster  Alan B. Chamberlin